SES-15 (42709 NORAD) Tracking and Keplerian Element Data

This shows tracking and keplerian element data for the satellite.

Feedback or suggestion? Click here.




ElementValue
Catalog42709
NameSES-15
Epoch Orbit1142
Epoch Day90.52956271
Epoch Year2020
RAAN97.8448
Inclination0.0224
Eccentricity6.92E-05
Argument of Perigee245.7285
Mean Anonmoly266.2844
Mean Motion1.00272625
Decay Rate5.9E-07
L11 42709U 17026A 20090.52956271 .00000059 00000-0 00000+0 0 9999
L22 42709 0.0224 97.8448 0000692 245.7285 266.2844 1.00272625 11427

Live tracking and technical data element details for SES-15 (NORAD 42709). SES-15 can be tracked NOW for your location showing map with azimuth and elevation plus other details from your city location.

Track the satellite on the map from your city or location and see movement details for azimuth, elevation, latitude, longitude, range, height, and movement on the map or in text.







IsCatalogInMostPopularTable: catalog: 42709, numindb: 384
Update: records affected: 1



GetName: 42709 SES-15

Hit Count: updated at: Fri, 03 Apr 2020 06:59:17 GMT